User: anonymous   Login
Location: Vancouver
(49.2500°N, 123.1330°W)
Time: 18:46:43
(UTC-07:00)
Language:

Cosmos 1864 Rocket - Orbit

View from above orbital plane
View from above orbital plane
View from above satellite
View from above satellite

Ground track
Ground track

The orbit data is extracted from the following two-line orbital elements,

1 18161U 87057B   17291.57517918 +.00000085 +00000-0 +70930-4 0  9993
2 18161 082.9349 340.1264 0030378 330.5689 182.6718 13.76981137500946
Epoch (UTC): 18 October 2017 13:48:15
Eccentricity: 0.0030378
inclination: 82.9349°
perigee height: 952 km
apogee height: 997 km
right ascension of ascending node: 340.1264°
argument of perigee: 330.5689°
revolutions per day: 13.76981137
mean anomaly at epoch: 182.6718°
orbit number at epoch: 50094

The dashed part of the orbit path shows where the satellite is in the earth's shadow,  

DLR